Wetbulb
59.46 59.72 59.78 60.04 60.24 60.31 60.28 60.22 60.35 60.40 60.53 60.62 60.77 60.72 60.57 60.55 58.79 58.22 56.44 63.08 63.19 66.53 65.60 58.62 60.48 61.76 62.23 60.74 61.96 61.74 55.51 53.42 54.95 55.44 57.14 61.15 59.38 59.52 63.16 61.90 61.42 63.86 63.30 66.06 68.89
59.01 59.14 59.37 59.54 60.06 60.01 59.95 59.86 60.02 60.05 60.05 60.33 60.51 60.23 60.11 60.19 56.88 56.08 66.37 69.07 69.08 67.96 57.29 55.78 57.08 59.69 59.07 59.85 59.97 57.95 55.35 55.01 58.88 59.20 59.36 61.47 60.40 60.94 59.37 60.35 60.83 63.05 65.80 66.99 68.41
58.36 58.66 59.00 59.32 59.49 60.01 59.72 59.58 59.67 59.91 60.19 60.15 59.89 59.85 59.76 58.74 55.56 59.03 66.46 69.81 69.30 66.57 58.00 58.42 58.53 59.13 57.88 59.78 58.85 57.64 54.02 56.79 57.00 58.35 60.99 61.33 60.50 62.32 59.93 57.61 60.60 61.01 64.99 66.18 67.12
58.11 58.38 58.84 59.47 59.41 59.57 59.37 59.33 59.47 59.74 60.04 59.69 59.58 59.71 59.94 58.01 52.93 60.02 69.09 68.40 68.41 60.80 59.88 59.31 57.74 56.79 56.80 56.04 58.28 54.50 56.56 57.10 57.64 58.66 58.46 59.06 62.14 61.26 60.80 60.90 63.37 63.99 66.53 67.24 66.80
58.17 58.43 58.68 59.15 59.11 59.02 58.98 58.98 59.14 59.05 59.09 59.14 59.44 60.15 57.44 57.39 58.57 64.36 69.51 66.61 58.46 57.92 58.82 57.74 56.92 57.36 55.48 57.18 57.01 55.60 56.28 56.84 58.10 58.47 58.84 60.81 59.33 59.88 60.74 62.20 64.38 64.49 65.65 66.70 67.19
57.83 58.08 58.53 58.57 58.51 58.56 58.28 58.12 57.92 57.95 58.36 59.16 59.97 59.29 58.06 54.68 61.75 63.44 61.02 59.40 59.54 59.12 59.25 59.84 59.10 60.03 58.18 56.73 56.07 57.46 56.39 56.57 57.37 58.28 58.83 57.07 59.16 59.93 61.67 63.38 63.17 63.66 64.25 61.66 66.92
57.34 57.96 58.17 58.25 58.36 58.24 57.85 57.65 57.22 57.83 58.74 59.83 60.39 59.15 57.11 58.17 62.28 62.46 61.19 60.91 61.62 60.83 59.27 61.41 61.16 58.94 59.31 56.17 58.63 57.10 54.20 55.82 56.54 57.80 57.26 59.55 57.02 56.01 60.32 61.57 61.87 63.23 61.86 64.09 66.92
57.38 57.67 57.74 57.97 58.13 58.18 58.00 57.95 57.93 58.47 59.33 60.13 60.49 57.49 57.57 61.91 63.77 61.55 62.01 61.04 61.53 61.98 60.98 62.16 62.10 59.68 58.84 59.95 57.01 54.93 55.90 52.59 56.57 57.28 57.51 57.76 53.70 59.03 61.15 61.16 61.23 62.59 60.82 63.04 65.98
57.01 57.38 57.34 57.61 57.85 57.97 57.79 57.57 58.25 59.08 59.61 60.44 58.79 59.08 58.59 63.50 60.15 62.31 62.87 60.37 60.98 61.35 61.96 61.80 60.48 58.19 58.29 55.03 53.72 55.12 50.82 51.24 54.14 57.64 56.26 55.86 54.87 59.44 61.66 61.24 59.68 60.20 61.09 60.39 60.91
56.49 56.93 56.74 57.02 57.29 57.69 57.02 57.13 58.54 57.27 60.77 59.26 59.78 57.49 60.26 57.09 59.98 61.52 63.47 61.85 59.47 59.58 58.85 58.29 57.64 55.57 55.89 53.75 48.20 50.96 51.47 53.32 52.29 55.45 55.90 53.67 53.53 57.54 59.60 59.94 59.27 59.58 63.57 61.00 60.19
55.78 56.39 56.44 56.65 56.93 56.87 55.30 56.50 54.36 57.06 56.64 57.34 57.90 58.07 57.92 60.52 61.66 60.16 62.19 60.19 59.65 58.46 54.80 57.53 54.21 51.88 54.26 55.90 54.52 53.52 52.43 52.52 54.98 56.61 55.06 54.42 53.94 56.00 58.46 59.08 58.84 60.59 61.74 63.91 65.78
54.97 55.55 56.06 56.46 56.81 57.28 57.22 56.42 57.72 60.86 53.99 58.72 59.37 59.13 59.83 60.30 56.36 58.63 61.44 57.24 56.78 54.23 56.69 55.45 52.65 55.91 56.96 55.11 53.79 53.35 53.17 52.55 54.13 55.49 55.04 53.97 53.82 55.87 58.46 59.35 59.79 60.43 61.94 63.56 65.64
54.50 54.80 55.82 56.48 57.02 55.70 54.97 56.75 61.59 62.65 56.31 56.05 58.37 57.91 58.01 59.37 56.45 56.74 58.89 57.65 55.45 54.04 54.48 53.06 54.39 56.79 55.18 53.18 53.04 53.88 53.02 52.81 52.19 54.02 55.03 54.57 53.02 55.24 58.39 60.84 61.91 62.43 64.43 65.03 65.32
54.35 54.63 55.91 56.53 51.86 55.92 54.79 59.21 61.30 63.44 53.59 53.43 54.24 57.00 58.45 58.55 55.46 60.11 60.10 57.92 55.97 53.64 54.44 54.08 56.57 54.25 53.81 52.59 53.94 50.74 54.70 53.36 51.83 51.18 47.73 54.20 47.38 54.27 56.88 56.13 59.56 61.04 62.32 61.97 61.73
54.09 54.72 55.59 53.81 57.63 56.49 59.88 62.34 63.09 62.66 45.77 53.96 54.55 60.81 58.72 55.70 56.64 56.63 60.13 57.74 54.11 54.54 54.97 52.61 53.69 52.39 52.36 54.44 55.60 51.78 54.06 53.36 53.90 52.43 51.86 52.36 49.20 53.64 55.95 51.98 53.01 59.30 59.79 60.94 62.44
54.01 54.60 55.13 55.81 56.35 60.77 64.13 62.85 61.90 51.60 45.34 51.36 54.64 54.10 54.01 55.08 55.54 56.92 56.02 58.28 58.66 55.49 54.84 54.62 57.62 55.72 55.96 56.25 55.38 57.73 55.77 54.68 54.69 52.76 46.90 51.33 49.73 50.71 53.08 54.13 55.11 57.23 58.68 59.77 60.50
53.40 54.90 53.82 60.90 59.17 63.32 63.12 60.15 50.68 47.03 54.80 51.23 51.82 53.33 53.15 52.30 53.54 54.62 53.52 53.32 52.11 50.25 51.02 54.07 53.77 55.70 56.53 53.42 56.92 56.08 53.69 47.93 46.45 46.05 44.97 52.07 49.74 51.44 54.67 54.83 55.53 55.78 57.20 58.44 59.27
52.25 53.95 55.92 59.09 63.52 62.66 62.38 55.28 47.42 51.70 51.77 54.55 53.24 52.92 51.13 53.16 52.94 53.52 53.22 52.10 54.88 54.41 52.26 50.02 47.95 54.53 56.50 53.86 52.66 54.06 54.40 47.72 41.87 43.93 46.09 52.25 46.96 48.21 56.61 57.64 58.01 58.32 59.03 59.78 60.38
49.89 59.23 63.02 62.65 62.20 63.82 58.88 50.58 51.36 53.57 55.09 53.13 53.13 50.55 50.30 52.45 52.71 52.80 53.08 52.82 54.72 54.58 51.75 50.38 51.23 56.74 55.80 55.88 55.61 54.20 51.48 54.89 51.14 51.54 45.85 48.41 50.64 54.93 56.61 56.12 57.04 57.46 58.70 60.00 61.04
59.46 61.32 59.07 64.66 64.86 62.47 56.53 50.57 54.33 56.10 55.70 54.24 50.65 51.93 49.53 50.65 50.71 51.92 52.22 54.56 53.77 55.72 58.88 56.88 50.88 55.26 55.64 56.22 57.77 55.16 57.13 49.97 50.91 43.73 42.29 45.94 44.83 47.54 53.38 54.80 56.90 57.36 58.13 60.16 61.41
60.33 57.02 61.72 63.80 64.01 58.76 52.71 54.61 54.79 56.36 56.16 53.92 54.29 52.65 51.89 51.33 51.72 51.68 52.21 54.79 55.95 55.50 57.62 56.66 55.34 53.37 55.68 52.94 49.83 53.17 52.65 53.47 52.36 50.49 43.49 41.58 46.08 54.68 54.84 56.72 57.01 57.26 59.47 59.93 60.10
59.83 53.80 63.26 62.58 55.29 55.72 53.46 55.54 51.81 54.96 56.67 55.56 56.84 56.35 54.04 53.52 52.07 52.17 53.41 56.79 59.29 58.48 53.74 57.81 57.35 52.14 53.40 56.04 57.11 55.84 54.43 54.38 48.18 46.92 49.49 48.49 46.42 55.79 56.49 57.11 59.02 58.94 58.89 59.71 60.20
57.64 58.10 63.07 60.15 51.24 52.72 56.00 55.27 55.42 54.26 54.66 54.85 55.29 56.84 58.08 55.29 52.46 53.86 57.70 59.83 59.73 56.08 58.76 61.67 54.71 49.26 50.92 51.53 55.12 52.42 53.66 53.43 53.79 55.01 48.75 45.41 46.88 57.22 58.56 58.18 58.75 58.05 58.38 59.38 59.50
57.34 53.73 57.53 56.74 57.78 55.99 55.05 54.18 53.02 55.74 54.68 56.08 57.39 57.53 56.49 55.48 56.50 55.09 56.36 58.80 60.47 60.38 59.46 62.09 58.48 53.93 47.93 50.85 53.89 52.91 53.30 54.27 54.14 49.50 48.69 48.26 49.57 54.41 55.77 55.42 55.25 58.64 58.86 58.70 59.33
57.31 57.00 58.22 50.81 53.07 55.84 57.12 55.16 53.22 52.14 54.89 56.04 56.16 56.40 55.70 54.18 54.75 54.62 56.94 58.24 59.25 56.88 58.89 61.46 54.25 53.95 52.11 55.19 54.52 52.67 52.81 52.57 51.49 51.94 48.89 49.94 50.90 53.52 55.63 56.65 55.97 59.60 58.62 58.61 58.77
56.55 58.40 61.02 58.28 55.68 54.80 53.21 54.56 52.90 53.17 54.40 53.83 55.32 55.94 56.74 55.32 56.48 55.24 56.94 57.55 57.31 59.02 60.02 61.54 55.06 55.85 52.67 53.24 54.40 52.46 54.04 53.14 52.77 52.62 51.66 52.11 51.18 57.41 57.64 56.07 55.82 57.94 57.91 57.93 58.76
59.75 62.16 60.53 55.00 56.17 53.91 53.55 54.79 54.18 54.96 55.12 56.43 56.73 56.51 55.71 57.40 60.57 61.06 61.75 60.70 60.97 58.99 58.64 58.14 56.65 54.98 49.53 52.96 52.73 47.34 52.27 52.85 53.15 53.88 53.37 49.55 53.52 57.23 56.77 57.37 56.63 56.28 56.39 55.80 58.62
MSLP
1018.33 1018.27 1018.07 1017.99 1017.73 1017.57 1017.33 1017.05 1016.97 1016.69 1016.47 1016.13 1015.75 1015.31 1014.91 1014.51 1013.43 1011.97 1010.47 1009.21 1008.57 1009.05 1008.97 1008.21 1007.51 1006.56 1005.58 1004.55 1003.35 1002.92 1003.05 1004.19 1003.91 1003.51 1003.88 1004.61 1006.21 1006.75 1006.39 1007.13 1006.57 1006.91 1007.27 1008.36 1009.10
1018.23 1018.12 1017.98 1017.83 1017.67 1017.43 1017.23 1016.98 1016.86 1016.59 1016.33 1015.99 1015.61 1015.14 1014.77 1014.56 1013.18 1010.48 1008.59 1008.68 1008.75 1008.73 1008.65 1007.86 1007.30 1006.33 1005.02 1003.69 1002.71 1002.39 1002.50 1003.19 1003.39 1003.30 1003.95 1004.79 1005.36 1006.39 1007.71 1008.61 1007.65 1007.00 1007.26 1008.34 1008.92
1018.09 1017.95 1017.78 1017.72 1017.46 1017.34 1017.07 1016.86 1016.72 1016.45 1016.15 1015.79 1015.48 1014.97 1014.71 1014.61 1011.86 1008.28 1008.52 1008.61 1008.69 1008.62 1008.21 1007.27 1006.78 1005.79 1004.44 1003.03 1002.30 1001.93 1001.89 1001.86 1002.04 1002.69 1003.03 1004.08 1005.13 1006.03 1007.68 1008.02 1007.82 1007.45 1007.08 1008.17 1008.70
1017.88 1017.73 1017.58 1017.52 1017.27 1017.15 1016.94 1016.68 1016.58 1016.29 1015.97 1015.61 1015.38 1014.87 1014.31 1013.74 1010.07 1008.21 1008.44 1008.53 1008.58 1008.37 1007.87 1006.69 1005.79 1004.83 1003.75 1002.53 1001.98 1002.00 1001.88 1002.07 1002.09 1002.51 1002.60 1003.14 1005.60 1006.52 1006.05 1007.58 1006.70 1006.22 1006.33 1007.45 1008.27
1017.70 1017.50 1017.39 1017.35 1017.10 1016.95 1016.80 1016.47 1016.49 1016.16 1015.81 1015.48 1015.32 1015.05 1013.83 1011.17 1007.96 1008.00 1008.25 1008.49 1008.27 1008.09 1007.12 1005.60 1004.85 1003.89 1003.04 1002.07 1002.09 1002.01 1001.85 1002.36 1002.23 1002.56 1002.61 1003.18 1003.57 1004.95 1005.43 1005.95 1006.34 1005.46 1006.11 1006.91 1007.39
1017.38 1017.23 1017.22 1017.12 1016.93 1016.78 1016.60 1016.28 1016.31 1015.96 1015.61 1015.40 1015.31 1015.19 1013.61 1009.77 1006.43 1007.29 1007.21 1007.79 1007.23 1006.89 1005.66 1004.69 1003.85 1003.41 1002.80 1001.85 1002.17 1002.06 1002.19 1002.07 1002.28 1002.26 1002.61 1003.27 1004.52 1006.01 1005.78 1005.67 1004.92 1005.90 1005.91 1006.92 1006.18
1016.98 1017.00 1017.01 1016.81 1016.80 1016.59 1016.31 1016.09 1016.09 1015.67 1015.31 1015.29 1015.33 1014.69 1012.03 1008.23 1006.25 1006.50 1006.77 1006.58 1006.00 1005.66 1005.02 1004.49 1004.29 1003.81 1002.87 1002.35 1002.33 1002.44 1002.62 1002.33 1002.29 1002.33 1002.71 1003.16 1004.55 1006.20 1005.86 1005.90 1005.79 1006.01 1007.57 1009.27 1008.56
1016.83 1016.81 1016.74 1016.59 1016.53 1016.33 1016.00 1015.93 1015.77 1015.31 1015.01 1015.01 1015.07 1014.11 1010.02 1006.43 1006.12 1006.26 1006.37 1005.99 1006.07 1005.73 1005.43 1004.93 1004.66 1004.31 1003.25 1002.56 1002.64 1002.54 1002.87 1003.05 1002.52 1002.49 1002.44 1003.29 1004.47 1005.15 1004.96 1005.05 1005.51 1005.95 1006.90 1009.33 1008.15
1016.48 1016.54 1016.38 1016.46 1016.24 1016.02 1015.82 1015.73 1015.28 1014.93 1014.64 1014.67 1014.08 1012.59 1007.73 1006.74 1006.15 1005.68 1005.73 1005.27 1005.59 1005.58 1005.39 1005.13 1004.95 1004.15 1003.37 1002.79 1002.74 1002.76 1004.18 1004.34 1003.03 1002.67 1002.75 1002.79 1003.45 1004.13 1004.49 1004.78 1004.64 1005.24 1007.70 1008.97 1011.71
1016.31 1016.20 1016.16 1016.22 1015.95 1015.84 1015.70 1015.58 1014.87 1014.66 1013.40 1013.32 1012.34 1010.97 1007.15 1005.50 1005.52 1005.45 1005.43 1005.15 1005.29 1005.29 1005.20 1005.03 1004.49 1003.73 1002.81 1003.03 1003.75 1002.70 1003.33 1002.97 1002.85 1003.24 1002.96 1002.94 1002.92 1003.95 1003.33 1003.75 1004.48 1004.89 1006.33 1007.31 1009.80
1015.99 1016.07 1015.89 1015.88 1015.79 1015.77 1015.65 1014.89 1014.28 1012.91 1011.81 1009.32 1008.33 1007.19 1005.81 1005.47 1005.74 1005.18 1005.41 1005.28 1005.07 1005.18 1004.82 1004.43 1003.93 1003.17 1003.47 1002.98 1003.01 1003.05 1002.79 1002.85 1002.97 1002.91 1003.26 1003.26 1003.20 1002.79 1003.07 1003.59 1004.04 1004.49 1005.08 1005.28 1006.26
1015.90 1015.70 1015.63 1015.63 1015.71 1015.74 1015.69 1012.47 1009.81 1008.45 1008.51 1008.12 1006.84 1006.16 1005.51 1005.31 1005.15 1004.94 1005.11 1005.13 1005.03 1004.80 1004.26 1003.94 1003.15 1002.83 1002.92 1003.26 1003.33 1003.09 1003.09 1003.17 1003.32 1003.28 1003.34 1003.22 1003.21 1003.21 1003.65 1004.32 1004.91 1005.02 1005.01 1005.20 1006.70
1015.56 1015.46 1015.53 1015.59 1015.75 1015.56 1013.36 1010.65 1008.61 1008.02 1007.43 1006.52 1006.23 1005.58 1005.47 1005.30 1004.63 1004.62 1005.13 1004.69 1004.50 1004.38 1003.78 1003.33 1002.93 1003.25 1003.38 1003.24 1003.20 1003.42 1003.96 1003.98 1004.00 1003.71 1003.47 1002.94 1003.21 1003.37 1004.47 1005.15 1005.64 1005.70 1005.73 1005.70 1006.76
1015.36 1015.38 1015.41 1015.48 1015.83 1012.27 1011.13 1010.06 1008.72 1008.20 1007.39 1005.51 1005.51 1004.83 1004.79 1004.85 1004.36 1004.16 1004.59 1004.49 1003.84 1003.66 1003.39 1003.05 1003.22 1003.53 1003.42 1003.31 1003.43 1003.68 1004.41 1004.55 1004.23 1004.15 1003.70 1003.77 1004.61 1005.04 1005.99 1007.63 1005.74 1005.83 1006.10 1006.61 1007.04
1015.25 1015.08 1014.95 1014.98 1014.11 1010.39 1008.66 1008.24 1008.19 1008.68 1006.21 1004.85 1004.75 1004.19 1004.60 1004.76 1004.13 1004.74 1005.01 1004.83 1004.21 1003.55 1003.89 1003.39 1003.13 1003.60 1003.39 1003.64 1004.47 1004.58 1004.67 1004.60 1004.47 1004.39 1004.36 1004.76 1005.50 1006.47 1006.91 1008.57 1009.13 1005.96 1006.05 1006.16 1006.51
1014.87 1014.72 1014.91 1014.85 1013.57 1010.05 1008.40 1008.46 1009.11 1008.14 1005.00 1004.09 1004.24 1004.40 1004.40 1004.62 1004.26 1004.71 1005.09 1005.19 1004.62 1004.12 1004.00 1003.81 1003.70 1003.65 1003.92 1004.42 1004.59 1005.10 1004.79 1004.19 1004.32 1005.04 1005.61 1006.29 1005.91 1007.02 1007.06 1006.81 1006.53 1006.25 1005.94 1006.10 1006.29
1014.56 1014.40 1014.45 1012.08 1009.80 1008.49 1008.38 1008.69 1008.35 1006.39 1004.53 1003.95 1004.02 1004.25 1004.18 1004.28 1004.21 1004.72 1004.91 1005.05 1004.80 1004.70 1004.01 1003.90 1004.10 1004.31 1004.90 1004.65 1005.01 1005.31 1005.39 1004.92 1004.90 1005.43 1005.65 1005.90 1006.61 1007.46 1006.83 1006.85 1006.68 1006.57 1006.45 1006.47 1006.61
1014.62 1014.27 1013.03 1011.74 1009.88 1009.07 1008.73 1008.43 1007.00 1004.46 1004.08 1003.68 1003.78 1003.86 1003.81 1003.81 1004.20 1004.74 1004.84 1004.70 1004.78 1004.61 1004.70 1004.38 1004.33 1004.87 1005.21 1005.30 1005.54 1005.91 1006.77 1006.91 1006.86 1006.90 1007.07 1007.24 1008.11 1009.63 1007.59 1006.91 1006.95 1006.67 1006.65 1006.54 1006.67
1014.55 1013.47 1011.63 1010.29 1009.97 1009.47 1008.92 1007.66 1006.19 1004.84 1004.39 1004.55 1004.37 1003.80 1003.81 1003.73 1004.16 1004.70 1004.81 1004.41 1004.34 1004.81 1005.04 1006.13 1005.19 1005.62 1005.71 1006.02 1006.43 1006.79 1007.65 1008.57 1008.50 1008.45 1008.78 1008.43 1009.31 1009.13 1008.30 1007.59 1007.49 1007.49 1007.44 1007.28 1007.42
1013.52 1011.28 1009.56 1008.99 1009.49 1009.47 1008.75 1007.08 1006.05 1005.94 1005.62 1005.56 1004.57 1004.45 1003.87 1003.93 1004.55 1004.66 1004.81 1004.68 1005.16 1005.59 1005.50 1005.68 1005.58 1006.11 1006.53 1006.79 1007.79 1008.50 1008.69 1009.39 1009.11 1009.21 1009.09 1008.71 1009.98 1009.67 1008.68 1008.30 1008.25 1008.26 1008.29 1008.19 1008.17
1012.73 1010.10 1008.45 1008.62 1009.39 1009.03 1007.77 1006.37 1006.17 1006.36 1006.21 1005.93 1005.07 1004.25 1003.90 1003.89 1004.51 1004.56 1004.43 1005.29 1005.93 1006.05 1006.35 1006.33 1006.63 1006.81 1007.51 1010.09 1011.25 1010.23 1009.37 1009.70 1009.19 1009.84 1010.19 1009.82 1010.34 1010.18 1009.80 1009.13 1008.95 1009.04 1008.97 1009.16 1009.32
1012.01 1009.53 1008.39 1008.76 1009.05 1008.19 1007.05 1006.29 1007.05 1006.57 1006.53 1006.30 1006.03 1005.13 1004.45 1004.07 1004.49 1004.59 1004.96 1005.75 1006.75 1007.07 1006.96 1007.09 1007.53 1007.85 1008.75 1010.90 1010.95 1009.99 1010.21 1010.36 1010.19 1010.47 1010.48 1010.44 1010.79 1010.52 1010.08 1009.68 1009.59 1009.68 1009.47 1009.57 1010.15
1012.19 1009.05 1008.49 1008.59 1008.21 1007.46 1006.92 1006.76 1006.96 1007.13 1006.70 1006.51 1006.22 1005.92 1005.37 1004.86 1004.91 1005.05 1005.96 1007.25 1007.53 1007.61 1008.36 1008.49 1008.33 1008.69 1009.97 1012.77 1012.10 1011.04 1010.61 1010.65 1011.38 1010.58 1010.40 1010.61 1010.12 1009.90 1010.23 1010.40 1010.78 1010.53 1009.92 1010.26 1011.41
1012.85 1009.23 1008.90 1008.75 1007.99 1007.74 1006.92 1007.05 1007.51 1007.53 1007.33 1007.27 1006.76 1006.53 1006.20 1005.75 1005.77 1005.85 1006.37 1007.42 1007.95 1008.24 1009.03 1009.17 1009.00 1009.10 1009.33 1009.41 1009.49 1009.53 1010.10 1009.98 1010.22 1010.30 1009.91 1009.93 1009.93 1010.18 1011.27 1011.69 1012.14 1011.19 1010.57 1010.97 1011.81
1012.81 1009.50 1008.67 1008.48 1008.31 1007.76 1007.25 1007.07 1007.32 1007.51 1007.93 1007.63 1007.24 1006.70 1006.35 1006.10 1005.91 1006.05 1006.34 1007.42 1008.13 1008.91 1009.17 1009.31 1009.22 1009.16 1010.01 1008.86 1008.73 1008.61 1008.93 1008.65 1008.90 1009.13 1009.66 1009.94 1010.36 1011.07 1011.61 1012.46 1012.79 1011.83 1012.01 1012.19 1013.01
1013.03 1011.39 1010.02 1008.47 1008.33 1008.02 1008.01 1007.43 1007.19 1006.97 1007.41 1007.33 1007.28 1006.78 1006.36 1006.38 1006.22 1006.62 1007.60 1006.89 1008.27 1009.38 1009.03 1009.33 1009.32 1009.19 1009.49 1008.89 1009.12 1009.87 1009.99 1008.61 1008.56 1009.31 1009.81 1010.30 1010.79 1011.57 1012.53 1013.89 1016.06 1013.52 1013.73 1014.19 1014.61
1013.87 1012.68 1011.63 1009.70 1008.94 1008.10 1007.87 1007.77 1007.64 1007.45 1007.45 1007.25 1007.29 1006.85 1006.80 1006.95 1006.69 1007.30 1008.01 1008.52 1009.03 1009.05 1009.10 1009.25 1009.44 1009.51 1009.31 1009.15 1009.69 1010.27 1009.14 1009.09 1009.38 1009.84 1010.53 1010.93 1011.35 1012.08 1012.95 1014.16 1015.43 1015.58 1015.72 1015.87 1015.36
Wind_Speed
6 7 7 8 8 9 10 10 11 11 11 12 13 13 15 16 21 18 17 14 2 2 4 14 15 17 19 20 21 10 4 12 6 8 8 17 23 20 19 20 10 15 16 18 18
7 7 8 8 8 9 11 10 11 11 12 12 13 13 15 14 19 21 4 7 8 8 10 14 14 18 15 18 6 8 2 14 10 13 14 13 7 4 17 17 9 13 22 18 16
8 8 9 9 8 9 10 10 12 11 12 13 14 14 14 15 14 7 7 6 6 6 13 14 16 19 18 17 14 8 6 8 7 9 21 17 19 13 22 6 15 14 19 17 15
9 9 9 9 8 10 10 10 12 12 12 13 13 16 19 7 5 5 8 7 4 5 12 17 17 18 18 16 5 8 6 8 11 7 8 13 21 18 16 13 25 18 21 19 16
9 10 10 10 8 10 11 10 12 12 12 12 12 14 15 9 12 8 9 6 7 9 14 13 14 17 16 15 4 10 7 2 5 4 5 4 5 20 14 8 26 14 18 20 18
9 10 9 10 9 10 11 10 13 11 12 12 11 16 8 14 4 12 9 10 11 13 15 14 10 6 11 3 6 1 4 4 0 7 1 6 16 23 9 4 13 1 12 12 12
9 10 9 9 10 11 10 11 13 12 12 12 9 7 11 16 3 8 9 11 9 12 6 7 10 13 13 3 8 5 7 10 8 5 6 3 9 13 29 23 5 16 16 21 18
10 9 9 9 10 11 10 12 14 12 13 12 6 7 10 4 3 7 9 7 4 7 8 7 9 12 13 12 3 13 6 7 4 4 4 5 12 16 17 18 13 12 18 11 20
8 9 8 10 10 11 10 13 15 14 12 10 8 8 8 4 10 11 10 11 9 6 7 8 8 12 15 10 6 5 6 15 7 2 6 7 8 13 18 19 6 6 18 18 18
8 8 7 9 9 10 11 10 7 13 9 10 10 10 12 7 6 6 5 1 6 6 7 7 10 15 10 1 6 2 13 10 1 4 9 12 17 16 11 6 7 11 17 22 35
7 7 7 8 8 8 9 6 7 7 11 12 3 15 8 8 6 9 9 6 4 8 12 15 14 12 4 10 10 8 8 13 11 6 5 12 16 3 4 8 7 7 7 4 1
6 5 6 7 7 4 6 9 14 12 11 17 19 7 4 10 9 11 7 8 7 11 17 16 12 11 3 6 11 9 16 13 9 15 9 12 13 9 10 7 5 9 3 5 1
6 5 6 6 2 3 13 15 13 9 8 16 9 13 10 11 10 11 11 12 11 15 18 12 11 1 6 9 8 11 8 12 15 14 16 13 13 3 6 8 5 2 9 6 5
7 6 7 6 0 12 15 17 14 5 7 15 15 7 15 13 5 10 12 11 9 15 11 9 8 4 7 10 4 5 9 13 15 12 12 2 10 14 9 24 10 6 6 4 2
8 6 7 16 11 14 11 10 4 1 7 17 15 8 9 13 10 9 5 9 14 10 4 3 5 1 8 9 7 13 15 14 12 12 15 11 9 8 15 13 19 7 3 4 6
7 5 7 5 7 16 5 3 4 7 4 10 14 8 15 14 7 9 8 12 10 12 2 14 6 1 12 4 3 12 20 17 13 7 4 15 9 10 6 3 5 11 8 6 7
9 7 8 9 8 6 2 6 7 9 7 12 14 14 14 12 11 6 10 10 8 8 10 6 8 2 6 8 2 8 11 7 3 6 6 10 8 8 9 11 11 9 10 10 11
9 7 13 9 15 3 6 9 8 4 6 9 10 12 13 12 9 9 9 11 10 12 5 5 10 7 5 4 8 9 10 8 11 10 11 16 9 9 12 10 7 8 11 11 15
8 5 7 9 14 3 7 10 6 10 7 2 6 7 11 9 8 8 6 11 3 5 5 7 10 11 2 5 2 6 8 16 9 2 2 7 15 15 5 6 8 14 16 15 13
5 9 10 9 3 5 8 13 2 5 6 3 6 8 9 11 6 9 12 4 2 5 10 8 4 4 8 1 13 6 10 5 6 3 8 12 7 5 11 15 15 15 14 14 13
5 7 9 7 5 7 9 11 4 6 1 5 10 6 12 10 10 10 6 10 4 1 5 7 4 0 3 8 6 24 1 6 4 9 9 8 7 18 10 10 10 9 13 12 14
6 8 10 8 7 9 12 4 3 8 6 5 7 8 8 6 11 10 6 8 5 7 3 4 4 9 3 12 7 13 5 7 4 6 8 10 4 11 6 7 8 10 12 13 11
6 3 6 9 9 10 11 10 5 4 2 4 7 6 7 7 2 8 12 7 5 1 4 9 2 7 17 17 8 4 1 2 13 3 6 7 4 2 12 10 15 7 10 14 21
6 3 5 7 12 12 9 7 7 4 2 4 7 2 3 5 3 4 11 6 6 5 3 2 6 10 11 3 5 7 18 16 8 3 7 10 13 13 15 13 18 22 12 15 12
5 4 2 9 11 11 10 9 10 9 10 8 7 10 8 5 10 10 8 10 7 5 5 3 6 11 20 19 12 9 18 9 10 10 7 10 14 15 13 3 10 4 16 20 18
5 6 9 5 12 11 4 9 13 12 11 9 9 10 5 3 8 3 18 5 8 6 6 3 5 8 9 15 9 17 23 15 7 5 8 13 10 12 13 20 26 23 20 19 18
8 9 5 3 6 7 11 10 7 7 9 10 8 11 8 4 9 9 11 3 11 4 2 1 5 8 10 8 2 4 9 8 9 10 11 11 13 15 13 13 17 18 17 13 12
Wind_Direction
286 290 297 299 308 307 310 320 314 319 317 312 309 314 310 317 307 294 266 265 201 211 293 271 277 278 269 265 271 275 276 29 279 84 70 97 98 247 63 16 89 147 128 123 137
280 284 289 298 301 307 308 316 313 320 313 312 308 314 313 325 302 284 310 152 165 165 249 245 248 260 261 264 264 261 312 183 174 145 120 138 134 133 110 311 349 109 115 133 145
274 278 285 289 299 300 306 311 310 315 310 311 313 314 314 323 289 195 182 187 158 188 240 240 230 250 260 266 247 274 339 4 82 35 141 179 115 164 130 127 243 242 136 144 152
271 275 282 285 295 296 300 307 307 310 308 313 317 318 313 268 329 83 167 136 131 246 243 242 231 239 244 248 245 278 65 339 48 66 300 62 138 144 123 199 212 221 148 148 163
267 274 278 280 288 292 293 304 300 302 305 310 317 327 323 238 255 133 146 158 204 231 245 219 222 235 245 258 103 269 105 301 104 259 288 150 218 149 143 175 219 126 149 161 174
269 270 272 277 286 286 288 300 292 296 300 304 320 320 266 279 62 140 177 178 233 220 240 237 255 332 288 345 214 215 356 330 358 284 102 296 49 6 343 302 184 109 161 70 172
273 268 269 276 278 280 289 292 285 289 295 299 321 306 274 259 0 148 176 214 214 245 231 289 334 300 295 187 274 273 254 228 205 190 296 45 73 124 275 295 102 212 73 352 260
264 264 267 271 272 275 289 284 281 286 290 290 297 284 262 114 282 182 193 203 199 258 304 320 298 283 288 313 262 253 8 291 321 227 197 246 132 194 221 247 236 136 144 127 294
275 266 264 269 270 277 282 281 276 282 266 274 271 217 260 144 208 188 199 201 188 228 257 283 281 263 256 250 300 71 327 322 284 96 346 291 199 175 216 245 331 301 131 117 236
277 269 263 264 270 278 282 266 314 296 222 238 253 273 252 200 123 169 196 202 185 211 239 248 240 247 251 178 274 252 186 220 147 187 15 330 323 153 184 69 334 294 153 152 208
292 268 258 260 267 276 297 228 221 205 231 245 194 238 137 102 171 203 162 228 202 209 227 208 253 259 357 312 339 307 307 29 12 19 331 338 298 291 326 25 341 360 308 305 166
298 276 258 250 253 266 267 251 283 329 209 227 264 272 333 162 196 162 194 209 198 225 229 241 234 288 180 351 326 300 343 26 342 338 317 301 303 318 66 49 17 343 305 274 172
316 277 242 222 230 224 238 248 299 309 262 211 223 220 184 221 201 175 201 230 205 239 249 271 273 246 321 313 268 41 320 349 321 318 295 299 258 183 91 118 109 29 11 1 15
318 263 214 140 322 221 220 234 262 340 268 168 203 245 182 221 258 147 209 274 244 241 256 265 92 339 278 272 28 68 16 317 306 311 302 232 53 81 48 14 343 132 138 97 63
313 255 200 210 326 215 201 204 256 34 269 146 185 199 181 215 172 188 279 297 282 282 282 261 44 270 255 77 12 334 324 295 282 284 284 27 318 85 74 76 255 121 102 174 220
322 246 166 194 234 265 183 145 216 236 207 154 146 188 208 209 225 124 196 236 299 292 214 267 35 252 40 7 295 354 310 298 287 321 78 263 272 119 136 89 24 22 15 354 304
335 202 187 315 233 201 203 199 206 253 137 143 166 190 207 189 209 166 206 199 234 218 224 181 203 176 353 307 89 289 334 314 317 211 150 247 56 352 53 32 22 23 359 341 323
342 142 225 258 301 318 253 214 251 252 187 121 190 192 202 177 200 192 194 218 220 281 262 335 134 40 136 346 339 10 357 360 331 359 330 15 52 359 347 52 3 359 351 354 2
324 199 245 230 239 306 246 216 219 275 64 115 256 198 205 174 201 202 219 249 141 225 303 160 226 195 40 324 26 57 352 16 318 137 259 246 111 208 353 20 4 6 359 2 8
263 214 208 170 163 244 240 255 352 49 45 298 228 234 203 193 205 186 190 206 37 318 339 342 161 339 117 247 53 357 358 68 283 21 327 351 56 344 15 20 24 17 355 10 20
244 221 138 171 192 228 233 229 114 71 61 285 296 211 246 165 196 186 202 99 88 275 277 320 338 324 57 76 45 294 253 304 341 19 332 326 46 4 340 3 41 6 42 16 5
293 262 151 163 216 228 236 190 359 154 179 227 319 324 285 239 186 241 84 94 82 347 276 32 349 324 126 113 8 6 13 359 2 6 329 305 92 8 35 9 58 22 34 35 30
274 218 155 181 220 213 233 93 157 155 257 207 225 300 336 336 58 288 102 105 96 125 8 355 233 269 122 24 271 226 273 225 264 218 322 292 354 331 59 26 10 351 29 32 49
280 192 146 202 251 303 226 207 180 237 358 296 325 314 242 286 216 281 126 105 92 65 33 353 286 283 301 241 171 195 194 211 225 264 308 330 339 36 30 40 41 316 38 55 70
254 313 37 190 225 249 282 179 222 174 219 212 215 229 220 238 195 228 145 126 139 146 177 254 258 272 7 315 300 336 335 335 316 321 338 343 349 12 349 45 194 7 41 42 23
325 348 336 304 206 231 147 225 217 206 179 209 248 223 267 250 300 58 351 191 124 173 160 150 283 293 307 301 23 21 294 290 325 27 339 1 334 41 28 54 34 44 45 32 20
11 318 271 332 209 234 216 233 227 246 212 215 222 257 205 308 66 81 123 331 161 66 193 231 310 306 289 316 109 259 258 357 7 6 20 346 359 44 346 78 61 49 30 0 11